Vorticity
nan nan nan nan nan nan nan nan nan nan nan nan nan nan nan nan nan nan nan nan nan nan nan nan nan nan nan nan nan nan nan nan nan nan nan nan nan nan nan nan nan nan nan nan nan nan nan nan nan
nan 7 4 5 9 7 8 5 11 11 7 3 5 9 5 4 11 14 13 10 5 7 7 7 4 6 6 6 5 6 6 4 4 4 5 5 5 5 5 5 5 6 6 6 6 5 5 5 nan
nan 6 7 5 7 9 9 14 14 7 1 2 3 5 9 10 7 5 13 9 7 6 7 6 6 6 6 6 6 6 5 5 5 5 5 5 5 6 6 6 6 7 6 6 5 5 4 4 nan
nan 7 5 5 7 9 12 19 9 1 2 8 5 5 10 6 10 10 11 5 6 6 8 4 6 7 7 6 6 6 5 5 5 6 6 6 6 6 6 6 6 6 6 5 5 4 5 5 nan
nan 5 8 7 8 6 11 11 1 -1 6 12 2 5 6 7 13 12 6 5 5 7 8 5 4 8 8 6 5 5 5 5 6 6 6 6 6 5 6 6 7 6 5 5 5 5 5 5 nan
nan 5 11 10 7 9 11 3 5 6 2 5 9 6 4 11 8 6 4 8 5 6 5 5 5 6 6 6 6 5 5 6 6 6 7 6 6 6 6 6 6 5 5 5 5 5 5 5 nan
nan 6 6 12 9 10 10 5 4 7 1 2 12 2 6 11 8 9 7 7 6 5 6 5 4 2 3 6 6 6 5 5 6 6 6 6 6 6 5 5 6 6 4 4 4 4 4 5 nan
nan 10 10 11 5 10 8 10 7 -4 5 10 7 6 11 12 8 9 7 5 6 5 6 6 6 5 5 3 5 6 6 7 6 6 6 4 4 5 5 6 3 5 5 5 5 5 5 5 nan
nan 8 10 10 11 5 6 5 4 6 11 3 6 12 21 17 7 5 5 4 4 5 7 7 6 6 7 6 6 6 5 6 7 5 6 4 4 7 0 3 6 4 4 5 6 6 5 6 nan
nan 5 7 7 15 1 1 -2 7 9 5 4 5 15 14 9 7 4 4 5 5 6 5 6 7 8 6 8 6 5 6 5 5 6 4 6 3 3 7 5 5 5 6 5 4 6 8 6 nan
nan 7 10 13 7 6 3 5 3 4 9 8 14 12 5 4 5 5 5 6 7 4 5 7 7 7 7 6 7 7 6 7 6 6 5 6 6 6 6 6 6 5 7 6 6 5 5 9 nan
nan 11 10 14 6 11 14 5 2 3 7 22 24 11 5 5 5 7 7 7 7 6 5 6 6 6 8 7 8 8 7 7 7 5 7 5 6 6 8 9 9 7 5 8 8 7 6 7 nan
nan 8 8 7 5 11 9 4 4 13 11 21 16 7 5 6 7 8 7 6 6 6 6 6 5 6 6 7 8 7 8 7 7 7 6 7 8 8 8 9 8 9 8 9 8 7 6 7 nan
nan 12 7 3 6 11 8 7 10 9 11 12 9 6 6 7 6 5 6 6 5 7 7 7 6 7 7 7 8 8 8 8 9 9 9 12 12 9 8 8 9 8 9 8 7 7 8 7 nan
nan 7 11 12 7 5 6 5 7 9 11 8 5 6 6 6 6 8 6 6 7 7 8 8 7 8 9 8 6 6 8 9 10 11 11 11 9 9 9 9 8 8 10 8 6 7 7 7 nan
nan 7 8 14 6 6 7 5 3 12 11 8 5 5 5 6 5 6 8 10 9 9 8 8 7 8 7 4 3 6 8 6 7 9 9 11 12 11 9 9 9 6 5 8 8 7 7 7 nan
nan 9 8 6 8 9 11 3 6 14 13 7 6 7 6 5 5 5 9 12 14 13 11 9 7 4 1 -0 6 5 6 10 9 9 9 8 9 9 9 7 6 6 7 6 7 7 8 7 nan
nan 10 6 6 12 10 6 3 9 14 11 6 7 7 7 4 5 9 11 13 16 15 11 6 5 4 1 3 7 7 9 9 10 9 8 7 8 7 7 7 5 6 8 7 7 8 7 8 nan
nan 11 8 2 9 9 7 5 9 12 11 8 8 6 6 7 8 9 11 13 12 11 11 9 5 0 1 5 9 12 9 6 7 8 8 7 7 7 7 7 6 8 7 7 7 7 8 9 nan
nan 8 6 5 9 11 10 4 8 10 9 10 9 9 8 8 9 10 10 10 11 10 8 7 7 6 6 9 8 9 8 7 7 6 5 7 7 7 8 7 7 7 7 7 7 9 9 9 nan
nan 14 9 6 2 11 10 4 5 8 11 9 9 10 11 10 8 8 9 11 12 12 9 8 8 10 8 7 7 7 7 7 8 7 6 5 6 6 6 7 6 7 8 7 7 8 9 9 nan
nan 8 14 12 4 2 5 8 16 6 6 9 10 9 8 8 6 9 10 9 8 9 10 11 11 9 9 7 7 5 6 7 8 9 7 4 5 6 6 6 6 6 7 7 8 7 8 8 nan
nan 11 10 7 8 9 8 4 9 11 6 10 8 8 7 5 7 9 7 5 6 6 7 8 8 9 9 10 10 10 10 10 6 6 6 8 7 6 7 7 6 7 6 7 8 7 7 8 nan
nan 5 4 7 9 8 9 9 3 12 13 12 9 7 6 7 9 6 4 4 4 6 8 8 7 7 8 9 10 10 8 7 6 6 8 8 9 9 8 7 7 7 8 8 7 7 7 6 nan
nan 3 4 8 8 9 10 9 13 13 17 15 11 7 7 8 7 6 5 5 6 7 6 7 7 7 7 8 9 8 7 6 5 7 8 8 9 8 8 10 9 8 8 8 7 7 8 8 nan
nan 8 11 12 11 10 8 11 11 8 12 17 15 10 9 7 6 7 6 7 8 7 8 7 8 8 8 8 7 5 4 5 7 7 8 8 7 6 7 10 10 9 8 8 7 8 7 9 nan
nan 10 9 12 8 9 11 12 7 6 13 15 13 10 7 6 6 7 7 8 8 8 10 10 10 8 6 6 7 6 5 5 7 8 9 9 9 9 8 9 9 8 9 10 8 7 8 10 nan
nan 13 6 7 8 11 8 8 15 14 12 12 11 8 6 7 7 8 9 10 10 11 10 10 10 9 7 5 6 6 7 8 9 10 9 10 9 8 9 10 10 10 10 10 9 7 10 11 nan
nan 2 4 7 11 11 10 10 10 14 14 12 10 10 8 7 9 10 11 11 11 10 9 8 8 7 7 7 8 7 7 9 10 9 9 9 7 7 9 10 11 11 11 11 11 9 11 13 nan
nan nan nan nan nan nan nan nan nan nan nan nan nan nan nan nan nan nan nan nan nan nan nan nan nan nan nan nan nan nan nan nan nan nan nan nan nan nan nan nan nan nan nan nan nan nan nan nan nan
CAPE
0 0 0 0 0 0 0 0 59 465 405 303 174 242 463 546 377 359 540 503 612 496 889 964 913 978 1098 1181 1251 1356 1388 1117 960 913 993 971 890 903 952 960 1039 700 678 518 309 137 111 112 126
0 0 0 0 0 0 0 0 92 480 420 264 95 207 384 598 586 496 571 570 549 596 828 1048 811 1033 1303 1309 1312 1371 1285 1104 1088 855 739 737 725 723 761 969 902 627 495 227 125 130 121 63 9
0 0 0 0 0 0 5 0 707 419 29 0 0 16 91 378 492 474 664 539 588 842 1006 1204 932 1145 1420 1381 1426 1379 1286 1187 1103 994 840 858 839 909 1017 883 931 405 186 85 45 17 2 0 0
0 0 0 0 0 0 64 655 739 378 130 33 0 25 165 405 320 585 494 528 733 997 1159 851 990 1180 1312 1524 1426 1345 1199 1064 1033 1130 993 827 591 496 606 635 564 219 57 17 0 0 0 0 0
0 0 0 0 0 0 374 617 419 161 1 0 0 0 75 708 609 542 464 498 754 1005 1262 1433 929 1199 1397 1533 1361 1210 1054 1010 1115 1205 976 609 434 396 430 416 298 80 21 0 0 0 0 0 0
0 0 0 0 0 0 39 685 380 147 6 2 55 12 407 797 954 789 526 493 665 971 1025 1124 938 1124 1276 1266 1046 906 919 953 1030 1000 852 566 464 416 352 254 134 38 0 0 0 0 0 0 0
0 0 0 0 30 105 559 475 235 23 95 106 99 159 561 884 1030 742 718 685 663 807 1017 1100 1197 1042 836 764 711 736 817 840 804 730 685 564 522 552 435 338 122 39 25 9 0 0 0 0 0
0 0 16 46 113 206 683 467 167 46 227 294 301 263 628 722 646 838 842 870 879 782 801 785 737 703 727 798 608 639 606 504 484 487 337 304 283 254 256 223 169 66 65 33 22 23 0 0 0
0 0 62 141 253 412 274 84 65 171 289 310 224 701 911 423 843 939 971 893 806 700 718 547 432 483 445 334 476 340 303 302 266 267 175 118 373 441 306 28 102 111 93 59 28 1 0 0 0
0 0 16 57 434 237 37 7 3 156 306 277 582 1088 1079 661 1051 917 742 672 560 466 236 224 225 193 115 5 154 188 74 39 340 421 499 505 718 795 583 317 68 82 8 0 0 0 0 9 0
0 0 0 82 325 124 75 10 29 105 122 403 523 1235 1098 1096 1091 946 744 574 354 52 2 45 128 122 35 20 31 5 16 184 582 775 785 865 804 945 965 1025 842 789 32 124 0 8 0 24 23
0 0 13 146 139 67 31 51 96 196 182 246 608 1262 1172 1188 984 780 573 217 0 0 3 38 73 128 105 20 16 105 223 516 617 784 929 1073 1300 1129 1060 974 1005 833 210 101 39 28 52 9 0
0 0 7 51 62 39 164 74 175 352 318 482 1143 1283 1169 773 469 551 159 0 0 0 18 127 159 103 146 265 357 429 578 673 888 902 1067 1237 1326 1292 1028 967 674 328 167 101 83 28 0 0 0
0 0 0 0 60 3 75 132 140 216 417 797 1159 941 666 406 211 190 0 0 0 0 29 308 342 367 371 488 590 661 701 727 956 1047 1251 1134 951 551 356 241 202 128 18 0 0 0 0 0 0
0 0 0 0 22 65 11 25 6 268 398 690 559 546 468 350 106 0 0 0 0 0 99 381 501 586 587 375 126 37 4 65 136 260 287 470 499 339 212 161 16 0 0 0 0 0 0 0 0
0 0 7 0 26 0 2 7 0 434 391 522 539 521 447 265 99 39 8 1 0 2 257 408 419 434 187 128 80 2 3 0 9 56 71 51 40 15 2 0 0 0 0 0 0 0 0 0 0
0 0 0 0 0 0 0 0 0 316 427 494 550 513 468 234 109 74 117 183 97 171 459 514 501 208 12 0 1 1 0 3 0 0 0 0 0 0 0 0 0 0 0 0 0 0 0 0 0
1 0 0 0 0 0 0 0 0 346 554 461 449 471 387 301 127 127 295 359 360 538 642 619 477 14 0 3 0 0 0 0 0 0 0 0 0 0 0 0 0 0 0 0 0 0 0 0 0
1 0 0 0 0 0 0 0 0 254 501 451 472 465 380 322 233 353 475 559 608 644 586 665 306 29 12 0 0 0 0 0 0 0 0 0 0 0 0 0 0 0 0 0 0 0 0 0 0
0 19 25 0 0 17 50 78 0 106 328 463 482 471 397 384 371 393 611 709 764 725 687 654 499 285 440 190 22 0 0 0 0 0 0 0 0 0 0 0 0 0 0 0 0 0 0 0 0
45 88 32 12 0 0 34 60 54 0 53 74 189 297 383 450 416 410 519 767 829 859 763 601 597 545 135 0 0 0 0 0 0 0 0 0 0 0 0 0 0 0 0 0 0 0 0 0 0
117 1 10 9 48 94 2 94 96 59 15 8 29 188 254 169 99 16 0 4 33 97 69 29 67 29 1 0 0 0 0 11 0 0 0 0 0 0 0 0 0 0 0 0 0 0 0 1 0
48 1 10 9 38 49 25 41 139 46 55 37 54 175 230 119 52 0 0 0 0 0 0 0 0 0 0 0 0 0 0 0 0 0 0 0 0 0 0 0 0 0 0 0 2 3 12 11 23
22 77 78 77 76 63 28 59 1 20 16 75 81 104 90 29 0 0 0 0 0 0 0 0 0 0 0 0 0 0 0 0 0 0 0 0 0 0 0 0 0 5 24 32 41 45 46 62 69
75 68 21 28 18 1 3 13 0 0 0 37 75 54 9 0 0 0 0 0 0 0 0 0 0 0 0 0 0 0 0 0 0 0 0 0 0 0 4 18 41 53 69 81 67 82 66 65 73
37 11 0 0 0 3 0 25 118 0 0 0 13 19 0 0 0 0 0 0 0 0 0 0 0 0 0 0 0 0 0 0 0 0 0 0 0 7 9 28 58 78 75 68 65 78 78 81 97
16 12 0 10 0 1 0 0 0 0 0 0 14 0 0 0 0 0 0 0 0 0 0 0 0 0 0 0 0 0 0 0 0 0 0 3 7 13 25 47 72 87 68 75 78 85 94 85 101
10 0 0 0 0 0 0 0 0 0 0 0 1 0 0 0 0 0 0 0 0 0 0 0 0 0 0 0 0 0 0 0 0 0 0 0 0 1 7 18 31 50 61 59 78 76 77 90 104
0 0 0 0 0 0 0 0 0 0 0 0 0 0 0 0 0 0 0 0 0 0 0 0 0 0 0 0 0 0 0 0 0 0 0 0 0 0 0 0 7 23 44 57 79 95 68 55 51
0 0 0 0 0 0 0 0 0 0 0 0 0 0 0 0 0 0 0 0 0 0 0 0 0 0 0 0 0 0 0 0 0 0 0 0 0 0 0 0 6 22 55 71 56 40 46 15 18